GFSNIL_sfc_temp_336.txt.gz
Temp
38 50 55 55 52 50 49 49 48 47 47 46 47 47 46 44 43 43 42 44 44 44
34 38 47 48 52 50 48 47 48 50 49 46 47 48 46 45 43 43 40 40 40 41
32 34 39 45 45 45 47 46 47 46 47 44 46 49 48 46 45 44 39 39 40 39
30 32 34 37 42 43 44 47 45 46 44 44 43 42 44 44 44 43 41 41 40 37
28 31 32 33 36 40 41 42 44 45 44 43 43 43 43 42 41 40 38 38 38 39
23 28 30 31 32 36 39 39 40 41 42 42 41 41 41 40 40 39 39 39 38 38
20 24 28 31 32 32 33 35 37 37 38 37 38 38 39 39 38 37 37 37 38 38
20 23 26 29 31 32 32 32 32 32 34 36 37 37 35 35 35 35 34 35 36 36
18 21 23 25 29 32 32 32 32 32 32 33 36 39 39 37 34 34 33 33 34 37
16 19 20 24 26 29 30 32 32 32 32 32 35 40 40 38 34 34 33 33 33 34
15 17 19 21 23 25 29 29 32 32 32 32 34 39 38 37 33 32 32 32 33 33
14 16 17 18 21 23 26 27 29 30 32 32 34 38 37 34 32 31 31 32 33 33
13 15 16 18 19 22 25 26 28 28 29 35 32 37 36 33 32 30 31 32 33 36
11 14 16 18 19 20 23 25 26 27 27 29 33 34 36 35 31 30 30 31 32 34

GFSNIL_sfc_temp_339.txt.gz
Temp
32 33 37 51 53 52 50 50 49 50 51 51 52 50 51 50 47 48 45 46 46 44
28 32 33 37 52 51 52 50 47 47 47 48 48 48 47 47 45 47 41 40 41 41
26 29 33 36 45 48 47 47 48 47 47 48 48 47 47 43 42 42 38 38 39 38
23 26 31 32 36 44 43 46 49 49 49 47 47 47 45 43 42 42 40 38 40 38
22 24 26 31 33 39 42 43 46 47 48 48 47 46 46 44 43 41 39 39 38 39
19 22 24 27 32 34 39 40 40 42 42 43 44 44 45 45 44 43 42 40 39 39
16 20 22 25 29 32 33 37 38 38 38 39 40 39 41 42 40 40 40 39 40 40
16 19 22 24 26 31 32 32 34 35 36 36 37 38 38 38 38 35 35 37 38 39
14 17 19 22 25 28 31 32 32 33 33 33 35 40 41 38 35 35 35 35 36 39
13 15 18 20 23 25 28 31 32 32 32 32 34 40 40 38 34 34 35 35 36 37
11 13 17 19 20 23 27 28 29 32 32 32 33 38 38 37 32 32 32 33 34 35
10 11 15 17 18 21 25 27 28 30 32 32 33 38 37 34 32 32 32 32 32 33
10 11 14 16 18 20 24 26 28 28 31 35 32 37 36 33 32 31 31 32 33 37
9 12 14 15 18 20 21 25 26 26 28 29 33 33 36 35 32 31 31 32 32 34

GFSNIL_sfc_temp_342.txt.gz
Temp
26 27 30 33 36 44 49 49 51 53 53 53 53 52 52 52 51 49 46 46 46 47
23 25 27 30 35 39 50 49 49 51 52 52 52 52 51 50 48 46 45 44 45 45
20 23 26 29 33 36 46 48 48 48 51 50 51 51 51 48 46 44 42 43 44 42
18 20 24 26 30 34 37 46 47 47 48 49 49 49 49 47 44 44 41 41 43 41
17 18 20 23 27 32 35 43 46 46 47 48 48 48 48 44 44 43 41 40 38 38
14 15 18 21 25 29 33 39 42 43 45 46 46 46 46 44 43 43 42 39 39 37
11 14 17 20 23 27 32 34 39 40 40 41 42 41 41 43 41 41 40 39 39 38
11 14 17 19 21 26 30 32 33 35 37 37 39 40 38 37 37 36 35 36 38 38
10 12 15 17 20 23 27 30 32 32 33 34 36 42 43 40 35 36 37 36 36 39
9 11 13 16 19 21 23 28 31 32 32 33 35 42 42 41 36 36 36 36 37 38
8 9 13 15 17 20 22 27 28 32 32 32 34 40 39 39 34 34 35 36 37 37
8 9 12 13 15 19 21 25 27 31 32 32 33 39 39 35 33 33 33 33 35 36
8 9 11 12 15 19 21 24 27 28 29 35 32 37 38 34 32 32 32 33 34 38
8 10 11 12 15 18 21 22 24 26 27 28 33 34 36 35 32 32 32 32 32 34

GFSNIL_sfc_temp_345.txt.gz
Temp
20 21 23 26 29 33 38 45 50 53 54 53 53 53 53 52 51 50 47 47 47 46
18 19 20 23 28 31 35 40 48 51 52 53 52 52 51 51 49 48 45 45 47 46
16 18 20 22 24 28 32 36 44 49 51 51 52 52 51 51 47 48 46 44 43 41
14 16 18 20 23 26 30 35 41 47 49 50 50 51 50 50 45 45 43 43 44 41
13 15 15 17 21 24 28 33 39 44 48 48 49 50 50 48 46 46 43 42 42 42
11 12 13 15 19 23 26 31 36 41 43 46 47 47 48 47 46 46 45 43 42 41
9 11 12 15 18 21 24 29 34 38 40 42 45 45 46 46 45 45 45 42 42 41
9 11 13 14 17 20 22 25 32 34 37 38 40 43 42 42 42 39 38 39 40 41
8 10 12 14 15 18 21 23 28 32 33 33 37 42 44 42 38 37 36 35 36 39
7 8 10 13 15 16 19 22 26 30 32 33 35 42 44 42 36 36 36 36 37 39
6 7 10 12 13 15 19 22 25 29 32 32 34 41 43 40 34 34 35 36 37 38
6 7 9 11 12 15 19 22 24 28 32 32 32 40 40 35 34 33 33 35 36 38
6 7 9 10 12 15 19 23 24 27 28 34 32 38 38 34 32 32 32 34 36 41
6 6 10 10 13 16 19 23 23 24 27 28 32 33 37 36 32 32 32 33 35 39